Weather History for Adrian, MI

Change the Weather History Date:

Friday, October 7, 2011

  Actual Average Record
Temperature  
Mean Temperature 51 °F -  
Max Temperature 78 °F 63 °F 88 °F (2007)
Min Temperature 24 °F 40 °F 24 °F (2011)
Degree Days  
Heating Degree Days 14    
Growing Degree Days 1 (Base 50)    
Moisture  
Dew Point 50 °F    
Average Humidity 89    
Maximum Humidity 100    
Minimum Humidity 43    
Precipitation  
Precipitation 0.01 in - - ()
Sea Level Pressure  
Sea Level Pressure 30.37 in    
Wind  
Wind Speed 1 mph (East)    
Max Wind Speed 9 mph    
Max Gust Speed -    
Visibility 4 miles    
Events Fog    
Averages and records for this station are not official NWS values.
T = Trace of Precipitation, MM = Missing Value Source: NWS Daily Summary

Daily Weather History Graph

Daily Weather History Graph

Search for Another Location

Airport:

Trip Planner

Search our weather history database for the weather conditions in past years. The results will help you decide how hot, cold, wet, or windy it might be!

Date:

Astronomy

Oct. 07, 2011 Rise Set
Actual Time 7:39 AM EDT 7:08 PM EDT
Civil Twilight 7:11 AM EDT 7:36 PM EDT
Nautical Twilight 6:39 AM EDT 8:08 PM EDT
Astronomical Twilight 6:06 AM EDT 8:40 PM EDT
Moon 4:53 PM EDT (10/7) 3:23 AM EDT (10/7)
Length of Visible Light 12h 24m
Length of Day
11h 28m
Waxing Gibbous, 83% of the Moon is Illuminated
Oct 7
Waxing Gibbous
Oct 11
Full
Oct 19
Last Quarter
Oct 26
New
Nov 2
First Quarter

Hourly Weather History & Observations

Time (EDT) Temp. Windchill Dew Point Humidity Pressure Visibility Wind Dir Wind Speed Gust Speed Precip Events Conditions
12:25 AM 55.4 °F - 53.6 °F 94% 30.33 in 0.8 mi Calm Calm - N/A   Mist
12:29 AM 53.6 °F - 53.6 °F 100% 30.33 in 4.0 mi Calm Calm - N/A   Clear
12:53 AM 53.1 °F - 52.0 °F 96% 30.34 in 3.0 mi Calm Calm - N/A   Clear
1:02 AM 53.6 °F - 51.8 °F 94% 30.33 in 2.5 mi Calm Calm - N/A   Clear
1:31 AM 51.8 °F - 51.8 °F 100% 30.33 in 1.8 mi NNE 3.5 mph - N/A   Mist
1:53 AM 50.0 °F - 50.0 °F 100% 30.34 in 1.8 mi Calm Calm - N/A   Mist
2:09 AM 50.0 °F - 50.0 °F 100% 30.34 in 2.0 mi Calm Calm - N/A   Mist
2:18 AM 50.0 °F - 48.2 °F 94% 30.34 in - Calm Calm - N/A   Unknown
2:26 AM 48.2 °F - 48.2 °F 100% 30.34 in 0.8 mi NNE 3.5 mph - N/A   Mist
2:53 AM 50.0 °F - 48.9 °F 96% 30.35 in 1.0 mi Calm Calm - N/A   Mist
3:03 AM 48.2 °F - 48.2 °F 100% 30.34 in 1.2 mi Calm Calm - N/A   Partly Cloudy
3:18 AM 48.2 °F - 48.2 °F 100% 30.34 in 0.2 mi Calm Calm - N/A Fog Fog
3:45 AM 48.2 °F - 48.2 °F 100% 30.34 in 1.5 mi Calm Calm - N/A   Scattered Clouds
3:53 AM 24.1 °F - 24.1 °F 100% 30.36 in 1.8 mi Calm Calm - N/A   Partly Cloudy
4:01 AM 48.2 °F - 48.2 °F 100% 30.34 in 1.0 mi ENE 3.5 mph - N/A   Mist
4:09 AM 46.4 °F 45.2 °F 46.4 °F 100% 30.34 in 0.2 mi NE 3.5 mph - N/A Fog Fog
4:19 AM 48.2 °F - 48.2 °F 100% 30.34 in 0.2 mi ENE 3.5 mph - N/A Fog Fog
4:53 AM 48.0 °F - 48.0 °F 100% 30.36 in 0.2 mi NE 4.6 mph - 0.01 in Fog Fog
5:15 AM 48.2 °F - 48.2 °F 100% 30.36 in 0.2 mi NNE 4.6 mph - N/A Fog Fog
5:53 AM 48.0 °F - 48.0 °F 100% 30.37 in 0.2 mi Calm Calm - N/A Fog Fog
6:23 AM 46.4 °F - 46.4 °F 100% 30.37 in 1.2 mi Calm Calm - N/A   Partly Cloudy
6:31 AM 46.4 °F - 46.4 °F 100% 30.37 in 2.0 mi Calm Calm - N/A   Clear
6:53 AM 46.9 °F - 46.9 °F 100% 30.39 in 1.8 mi Calm Calm - N/A   Clear
7:00 AM 46.4 °F - 46.4 °F 100% 30.38 in 2.0 mi Calm Calm - N/A   Clear
7:10 AM 46.4 °F - 46.4 °F 100% 30.38 in 2.5 mi Calm Calm - N/A   Scattered Clouds
7:44 AM 46.4 °F - 46.4 °F 100% 30.39 in 1.5 mi Calm Calm - N/A   Scattered Clouds
7:53 AM 46.0 °F - 46.0 °F 100% 30.41 in 1.0 mi Calm Calm - N/A   Mist
8:13 AM 46.4 °F - 46.4 °F 100% 30.40 in 1.8 mi Calm Calm - N/A   Scattered Clouds
8:21 AM 46.4 °F - 46.4 °F 100% 30.41 in 2.5 mi Calm Calm - N/A   Partly Cloudy
8:53 AM 50.0 °F - 50.0 °F 100% 30.42 in 2.5 mi Calm Calm - N/A   Clear
9:06 AM 51.8 °F - 51.8 °F 100% 30.41 in 3.0 mi Calm Calm - N/A   Clear
9:53 AM 57.0 °F - 54.0 °F 89% 30.43 in 5.0 mi Calm Calm - N/A   Clear
10:53 AM 64.0 °F - 55.9 °F 75% 30.43 in 8.0 mi Calm Calm - N/A   Clear
1:53 PM 75.9 °F - 55.9 °F 50% 30.40 in 10.0 mi South 5.8 mph - N/A   Clear
2:53 PM 78.1 °F - 54.0 °F 43% 30.37 in 10.0 mi SSW 6.9 mph - N/A   Clear
3:53 PM 78.1 °F - 54.0 °F 43% 30.38 in 10.0 mi South 6.9 mph - N/A   Clear
4:53 PM 78.1 °F - 54.0 °F 43% 30.36 in 10.0 mi South 9.2 mph - N/A   Clear
5:53 PM 75.9 °F - 54.0 °F 46% 30.35 in 10.0 mi South 8.1 mph - N/A   Clear
6:53 PM 71.1 °F - 55.9 °F 59% 30.36 in 10.0 mi SE 6.9 mph - N/A   Clear
7:53 PM 66.9 °F - 54.0 °F 63% 30.37 in 10.0 mi SE 3.5 mph - N/A   Clear
8:53 PM 64.0 °F - 53.1 °F 67% 30.38 in 10.0 mi Calm Calm - N/A   Clear
9:53 PM 60.1 °F - 53.1 °F 78% 30.38 in 10.0 mi Calm Calm - N/A   Clear
10:53 PM 57.9 °F - 53.1 °F 84% 30.39 in 8.0 mi Calm Calm - N/A   Clear
11:53 PM 55.0 °F - 53.1 °F 93% 30.39 in 6.0 mi Calm Calm - N/A   Clear